[[{"header":{"parameterUnit":"m.s-1","parameterCategory":1,"la1":30.2991,"la2":30.254,"lo1":-89.0895,"lo2":-89.0444,"dy":0.0017,"dx":0.0017,"nx":28,"ny":28,"refTime":"2024-11-25T09:00:00:Z","depth":0,"parameterNumber":2,"parameterNumberName":"U-component_of_WINDS"},"data":[0,0,0,0,0,0,0,0,0,0,0,0,0,0,0,0,0,0,0,0,0,0,0,0,0,0,0,0,0,0,0,0,0,0,0,0,0,0,0,0,0,0,0,0,0,0,0,0,0,0,0,0,0,0,0,0,0,0,0.8287,0.8286,0,0.8237,0.8236,0.8236,0.8167,0.8166,0.8165,0.8164,0.8112,0.8112,0.8112,0,0,0,0,0,0,0,0,0,0,0,0,0,0.8323,0.8323,0.8287,0.8286,0.8286,0.8237,0.8236,0.8236,0.8168,0.8166,0.8165,0.8163,0.8112,0.8112,0.8112,0,0,0,0,0,0,0,0,0,0,0,0,0,0.8294,0.8323,0.8287,0.8246,0.8242,0.8237,0.8236,0.8235,0.8168,0.8166,0.8164,0.8163,0.8112,0.8112,0.8112,0.8143,0,0,0.811,0.811,0,0,0,0,0,0,0,0,0.8296,0.8293,0.8253,0.8249,0.8244,0.8207,0.823,0.8205,0.8168,0.8196,0.8164,0.8162,0.8145,0.8142,0.8136,0.8141,0.8139,0.811,0.811,0.811,0.811,0,0,0,0,0,0,0,0.8298,0.8294,0.8267,0.8252,0.8247,0.823,0.8224,0.8225,0.8181,0.8193,0.8188,0.8183,0.8142,0.8137,0.8134,0.8138,0.811,0.811,0.8109,0.8109,0.8166,0.8168,0,0,0,0,0,0,0.8306,0.8297,0.8269,0.8266,0.8266,0.8231,0.8224,0.822,0.8181,0.8173,0.8185,0.818,0.8138,0.8135,0.8132,0.8167,0.811,0.8109,0.8109,0.8165,0.8167,0.8169,0,0,0,0,0,0,0.8307,0.8304,0.8271,0.828,0.8274,0.8232,0.8229,0.822,0.8215,0.8174,0.8166,0.8187,0.8137,0.8133,0.8141,0.8164,0.8109,0.8109,0.8163,0.8165,0.8168,0.8237,0,0,0,0,0,0,0.8308,0.8305,0.8317,0.828,0.8274,0.8281,0.823,0.8221,0.8214,0.8208,0.8174,0.8167,0.8135,0.8142,0.8141,0.8163,0.8108,0.816,0.8164,0.8167,0.8233,0.8242,0.825,0,0,0,0,0,0.831,0.8338,0.8317,0.8315,0.8288,0.8282,0.8278,0.8241,0.8216,0.8228,0.8202,0.8168,0.8162,0.8144,0.8141,0.8164,0.8159,0.8163,0.8167,0.8229,0.824,0.825,0,0,0,0,0,0,0.8377,0.8332,0.8309,0.8326,0.8309,0.8271,0.8284,0.8255,0.8243,0.8238,0.8192,0.8185,0.8199,0.8182,0.8162,0.8192,0.8155,0.8159,0.8203,0.8214,0.8222,0.8226,0.8108,0,0,0,0,0,0.8394,0.8394,0.8354,0.8373,0.8366,0.8327,0.8323,0.8296,0.8276,0.8268,0.8242,0.8224,0.8218,0.8215,0.8207,0.823,0.8222,0.8244,0.8252,0.826,0.8264,0.8275,0.8285,0.8182,0.8182,0.8182,0,0,0.8429,0.8405,0.8407,0.8386,0.8369,0.837,0.8321,0.8323,0.8323,0.8268,0.8274,0.8255,0.8231,0.8248,0.8253,0.8233,0.829,0.8265,0.8271,0.8271,0.828,0.829,0.8299,0.8185,0.8184,0.8184,0,0,0.8493,0.8474,0.8488,0.8472,0.8448,0.8422,0.8425,0.8392,0.8377,0.8383,0.8341,0.8341,0.8331,0.8316,0.8307,0.8366,0.8335,0.8365,0.841,0.8422,0.843,0.8437,0.8458,0.8466,0.8369,0.8369,0.8369,0,0.8539,0.8539,0.8499,0.8504,0.8496,0.8447,0.8461,0.8448,0.8422,0.8417,0.8396,0.8383,0.8364,0.8376,0.839,0.8385,0.8387,0.8369,0.8432,0.8438,0.8444,0.8464,0.8472,0.8373,0.8372,0.8372,0.8372,0,0.8597,0.8597,0.8611,0.8588,0.8582,0.8592,0.8553,0.8552,0.8526,0.8502,0.8509,0.8484,0.847,0.8471,0.8446,0.848,0.8468,0.844,0.8402,0.8459,0.8477,0.8484,0.8378,0.8377,0.8376,0.8375,0,0,0.8702,0.8657,0.8663,0.8652,0.8621,0.862,0.8628,0.8615,0.8615,0.8599,0.8604,0.8597,0.8571,0.8561,0.8533,0.8544,0.8593,0.8514,0.8513,0.853,0.863,0.8651,0.8661,0.8572,0.8573,0.8574,0.8632,0,0.876,0.877,0.8735,0.8754,0.8754,0.8708,0.8714,0.8696,0.8675,0.8671,0.8647,0.8643,0.8609,0.8603,0.8611,0.8585,0.8612,0.858,0.8577,0.8577,0.8584,0.867,0.8693,0.8749,0.8638,0.864,0.864,0,0.8828,0.8817,0.8836,0.8805,0.8804,0.8811,0.8796,0.8794,0.8773,0.8756,0.8746,0.8714,0.8719,0.8683,0.8689,0.8669,0.8665,0.8653,0.8654,0.8652,0.8612,0.8671,0.8765,0.8774,0.8651,0.865,0.8649,0,0.8903,0.8892,0.8902,0.8894,0.8858,0.8864,0.885,0.8827,0.8822,0.8809,0.8805,0.8794,0.8787,0.8779,0.8745,0.8722,0.8756,0.8717,0.8743,0.8744,0.8752,0.8752,0.8847,0.875,0.8749,0.8749,0.8749,0,0.8971,0.8985,0.8935,0.8942,0.8956,0.8916,0.8931,0.8912,0.8892,0.8894,0.8853,0.8856,0.8811,0.8809,0.8782,0.8792,0.8789,0.8776,0.8769,0.878,0.8782,0.8777,0.8772,0.8751,0.8751,0.8751,0.875,0,0.9057,0.9024,0.9032,0.8998,0.899,0.9002,0.8972,0.8977,0.8953,0.8956,0.8955,0.8917,0.8912,0.8878,0.8865,0.8847,0.8867,0.8852,0.8875,0.887,0.8898,0.8896,0.8994,0.9005,0.89,0.8901,0.8902,0,0.9103,0.9112,0.9079,0.9078,0.9065,0.9064,0.9058,0.9019,0.9015,0.8993,0.9,0.8993,0.8984,0.8979,0.895,0.8941,0.8926,0.896,0.8924,0.8935,0.8926,0.8926,0.8927,0.8968,0.897,0.8971,0.8972,0,0.9187,0.9171,0.9165,0.9154,0.9149,0.9138,0.9125,0.9126,0.9083,0.9081,0.9076,0.9069,0.9057,0.905,0.9036,0.902,0.8989,0.8984,0.8989,0.9,0.9013,0.9007,0.8896,0.8981,0.898,0.898,0.8979,0.8979,0.9254,0.9261,0.9239,0.9234,0.922,0.9209,0.9212,0.9189,0.9184,0.9171,0.9149,0.9147,0.9127,0.9104,0.9092,0.909,0.9072,0.908,0.9082,0.9084,0.909,0.9014,0.9087,0.9087,0.9087,0.9086,0.9086,0,0.9337,0.9321,0.9317,0.93,0.9296,0.9268,0.9252,0.9251,0.925,0.9234,0.9227,0.9221,0.9215,0.9186,0.9176,0.9181,0.9166,0.918,0.9179,0.9176,0.9107,0.9103,0.9191,0.9191,0.9191,0.9191,0.9191,0.9191,0.938,0.939,0.9371,0.9374,0.9358,0.9357,0.935,0.934,0.9326,0.9323,0.9317,0.9299,0.9278,0.9266,0.9259,0.9251,0.9249,0.9267,0.9255,0.9191,0.9181,0.9171,0.9167,0.9267,0.9267,0.9323,0.9324,0.9324]},{"header":{"parameterUnit":"m.s-1","parameterCategory":1,"la1":30.2991,"la2":30.254,"lo1":-89.0895,"lo2":-89.0444,"dy":0.0017,"dx":0.0017,"nx":28,"ny":28,"refTime":"2024-11-25T09:00:00:Z","depth":0,"parameterNumber":3,"parameterNumberName":"V-component_of_WINDS"},"data":[0,0,0,0,0,0,0,0,0,0,0,0,0,0,0,0,0,0,0,0,0,0,0,0,0,0,0,0,0,0,0,0,0,0,0,0,0,0,0,0,0,0,0,0,0,0,0,0,0,0,0,0,0,0,0,0,0,0,3.5114,3.5114,0,3.5167,3.5168,3.5168,3.515,3.5149,3.5147,3.5146,3.52,3.5203,3.5205,0,0,0,0,0,0,0,0,0,0,0,0,0,3.4996,3.4998,3.5114,3.5114,3.5115,3.5167,3.5168,3.5168,3.515,3.5149,3.5147,3.5146,3.52,3.5203,3.5206,0,0,0,0,0,0,0,0,0,0,0,0,0,3.5048,3.4999,3.5114,3.5112,3.5113,3.5167,3.5168,3.5168,3.515,3.5149,3.5147,3.5145,3.5199,3.5202,3.5206,3.5265,0,0,3.5218,3.5219,0,0,0,0,0,0,0,0,3.5045,3.5052,3.5112,3.5112,3.5113,3.515,3.5146,3.5201,3.5151,3.5136,3.5146,3.5144,3.5185,3.519,3.5204,3.5267,3.5269,3.5218,3.522,3.5222,3.5223,0,0,0,0,0,0,0,3.5041,3.505,3.5135,3.5113,3.5113,3.5109,3.5114,3.5156,3.517,3.5137,3.5136,3.5142,3.5185,3.52,3.5205,3.527,3.5218,3.5221,3.5224,3.5225,3.5385,3.5387,0,0,0,0,0,0,3.5037,3.5047,3.5133,3.5136,3.5074,3.5112,3.5118,3.514,3.5169,3.5172,3.5144,3.5141,3.5194,3.52,3.5207,3.5277,3.5222,3.5225,3.5228,3.5383,3.5385,3.5387,0,0,0,0,0,0,3.5035,3.5045,3.5131,3.5091,3.5102,3.5116,3.514,3.5142,3.5157,3.5174,3.5177,3.5157,3.5193,3.5201,3.525,3.5279,3.5227,3.5231,3.5381,3.5384,3.5386,3.5419,0,0,0,0,0,0,3.5032,3.5045,3.5067,3.5092,3.5104,3.5174,3.5142,3.5144,3.5163,3.5161,3.5187,3.519,3.5192,3.5245,3.5254,3.5283,3.5234,3.5378,3.5382,3.5385,3.5416,3.5423,3.5429,0,0,0,0,0,3.5028,3.5074,3.5068,3.5079,3.5132,3.5176,3.5183,3.5185,3.5166,3.5188,3.52,3.5189,3.5274,3.525,3.526,3.5291,3.5376,3.5381,3.5385,3.5413,3.5422,3.5429,0,0,0,0,0,0,3.5052,3.5077,3.5071,3.5127,3.5149,3.5172,3.5201,3.5194,3.5222,3.5219,3.522,3.5226,3.5277,3.5289,3.5261,3.535,3.5322,3.5329,3.534,3.5349,3.5355,3.5351,3.5237,0,0,0,0,0,3.5064,3.5097,3.5117,3.5165,3.5176,3.5187,3.5206,3.5206,3.5229,3.5238,3.5253,3.5276,3.5308,3.5329,3.5359,3.5417,3.5423,3.5444,3.545,3.5456,3.5462,3.5494,3.5503,3.5402,3.5402,3.5402,0,0,3.5088,3.5106,3.5127,3.517,3.5187,3.5221,3.5195,3.5232,3.5257,3.5244,3.5291,3.5303,3.5328,3.5383,3.5407,3.5394,3.5491,3.5462,3.5466,3.5469,3.5499,3.5509,3.5518,3.5405,3.5404,3.5404,0,0,3.5151,3.5168,3.521,3.5228,3.5254,3.5261,3.5271,3.5296,3.5303,3.5351,3.5341,3.5371,3.5426,3.5445,3.5462,3.5532,3.5523,3.5542,3.5577,3.5609,3.5617,3.5624,3.5649,3.5658,3.5548,3.5548,3.5548,0,3.5179,3.523,3.5232,3.527,3.5289,3.5279,3.5321,3.5338,3.5373,3.5387,3.5371,3.5441,3.5457,3.5516,3.5533,3.5546,3.5558,3.5539,3.5615,3.5623,3.5629,3.5654,3.5663,3.555,3.555,3.5549,3.5549,0,3.5263,3.5298,3.5329,3.5363,3.5386,3.5426,3.5434,3.5456,3.5454,3.5463,3.5512,3.5531,3.5565,3.5579,3.5577,3.5638,3.5629,3.5615,3.5588,3.5641,3.5664,3.5673,3.5553,3.5552,3.5551,3.5551,0,0,3.5342,3.5378,3.5389,3.5404,3.5433,3.5461,3.55,3.5534,3.5554,3.5578,3.5612,3.5659,3.5646,3.5665,3.5665,3.5693,3.5748,3.5675,3.5676,3.5688,3.5816,3.5826,3.5837,3.5742,3.5744,3.5745,3.5814,0,3.5408,3.5477,3.548,3.5544,3.5577,3.5567,3.5602,3.5623,3.5632,3.5662,3.5672,3.5705,3.5685,3.5697,3.5724,3.5735,3.5773,3.573,3.5773,3.5775,3.5767,3.5849,3.5861,3.5924,3.5823,3.5824,3.5825,0,3.5493,3.5521,3.5588,3.5612,3.5626,3.5657,3.5689,3.5717,3.5741,3.5746,3.5767,3.5764,3.5804,3.5776,3.5832,3.5803,3.582,3.5829,3.5831,3.5835,3.5803,3.5856,3.5945,3.5955,3.5839,3.5838,3.5837,0,3.5545,3.5599,3.5646,3.566,3.5689,3.5712,3.5725,3.5747,3.5767,3.5795,3.5808,3.584,3.5857,3.5882,3.5887,3.5866,3.5943,3.5915,3.5949,3.5949,3.5966,3.5964,3.6059,3.5976,3.5976,3.5976,3.5976,0,3.5618,3.5659,3.567,3.5699,3.5745,3.5748,3.5794,3.5805,3.5826,3.5857,3.585,3.588,3.5884,3.5915,3.5919,3.5965,3.5973,3.5978,3.5979,3.5979,3.5978,3.5991,3.5987,3.5979,3.5978,3.5978,3.5977,0,3.5684,3.5692,3.5743,3.5767,3.5774,3.5807,3.5828,3.5856,3.5864,3.5903,3.5913,3.5926,3.5962,3.5969,3.6011,3.6014,3.6069,3.6065,3.6061,3.6061,3.6094,3.6091,3.62,3.6215,3.6122,3.6123,3.6124,0,3.573,3.5762,3.5789,3.581,3.5824,3.5857,3.5878,3.5882,3.5904,3.5934,3.5958,3.5993,3.6021,3.6079,3.6092,3.6125,3.6122,3.6158,3.6126,3.6126,3.6123,3.6121,3.6124,3.6164,3.6165,3.6165,3.6166,0,3.5811,3.5814,3.5844,3.5876,3.5901,3.5927,3.5951,3.5968,3.5975,3.6,3.6037,3.6059,3.6102,3.6137,3.6169,3.6183,3.6176,3.6176,3.6185,3.6186,3.6182,3.6185,3.6078,3.6173,3.6173,3.6172,3.6172,3.6171,3.5869,3.5897,3.592,3.5954,3.5973,3.5996,3.6023,3.6035,3.6066,3.6102,3.6102,3.6142,3.6166,3.6209,3.6224,3.6256,3.6244,3.6258,3.6262,3.6265,3.6268,3.6177,3.6261,3.6261,3.6261,3.6261,3.6261,0,3.595,3.5965,3.5996,3.603,3.6057,3.6048,3.6074,3.6098,3.6133,3.6156,3.6184,3.6226,3.626,3.6276,3.6309,3.6331,3.6329,3.634,3.6339,3.6342,3.6276,3.6265,3.6341,3.6341,3.6341,3.6341,3.6341,3.6341,3.5995,3.6042,3.6048,3.6104,3.6118,3.6158,3.6174,3.6195,3.6213,3.626,3.6289,3.6299,3.6319,3.6354,3.6385,3.6389,3.6402,3.6414,3.6417,3.6355,3.6347,3.6339,3.6328,3.6417,3.6417,3.648,3.648,3.6481]}]]